Location: Friedrichshafen
(47.6598°N, 9.4819°E)
Time: 18:22:40
(UTC+02:00)

ISS - Pass Details

Date: 11 January 2018
Orbit: 401 x 409 km, 51.6° (Epoch: 22 August)

Event Time Altitude Azimuth Distance (km) Brightness Sun altitude
Exits shadow 05:51:09 55° 71° (ENE) 513 -3.1 -22.3°
Drops below altitude 10° 05:54:00 10° 103° (ESE) 1,511 0.2 -21.8°
Enters shadow 06:48:09 -72° 303° (WNW) 12,578 3.7 -13.0°
